Temperature
13 13 13 13 13 13 13 13 12 12 12 12 12 12 12 12 12 12 12 12 12 12 12 11 11 11 11 11 11 11 11 11 11 11 11 11 11 11 11 11 11 11 11
13 13 13 12 12 12 12 12 12 12 12 12 11 11 12 11 11 11 11 11 11 11 11 11 11 11 11 11 11 11 11 11 11 11 11 11 11 11 10 10 10 10 10
13 12 12 12 12 12 12 11 11 11 11 11 11 11 11 11 11 11 11 11 11 11 11 11 11 11 11 11 10 10 10 10 10 10 10 10 10 10 10 10 10 10 10
12 12 12 12 11 11 11 11 11 11 10 10 10 10 10 10 10 11 10 10 10 10 10 10 10 10 10 10 10 10 10 10 10 10 10 10 10 10 9 9 10 10 9
11 11 11 11 11 11 10 10 10 10 10 10 10 10 10 10 10 10 10 10 10 10 10 10 10 10 10 10 10 10 9 9 9 9 9 9 9 9 9 9 9 9 9
11 11 11 10 10 10 10 10 9 9 9 9 9 9 9 9 9 9 9 10 10 10 10 10 10 9 9 9 9 9 9 9 9 9 9 8 9 9 9 9 9 8 8
10 10 10 10 10 9 9 9 9 9 9 9 9 9 9 9 8 8 9 9 9 9 9 9 9 9 9 9 9 9 9 9 8 8 8 8 8 8 8 8 8 8 8
10 10 9 9 9 9 9 9 9 8 8 8 8 8 8 8 8 8 8 8 8 9 9 9 9 8 8 8 9 9 9 8 8 8 8 8 8 8 8 8 8 8 8
9 9 9 9 9 8 8 8 8 8 8 8 7 7 8 8 7 7 7 8 8 8 8 8 8 8 8 8 8 8 8 8 8 8 8 8 8 7 7 7 7 7 7
9 8 8 8 8 8 8 8 8 7 7 7 7 7 7 7 7 7 7 7 7 7 7 7 7 7 7 7 8 8 8 8 8 8 7 7 7 7 7 7 7 7 7
8 8 8 8 7 7 7 7 7 7 7 7 7 6 6 6 6 6 7 6 6 7 7 7 7 7 7 7 7 7 7 7 7 7 7 7 7 7 7 7 7 7 7
7 7 7 7 7 7 7 6 6 6 6 6 6 6 6 6 6 6 6 6 6 6 6 6 6 6 6 7 7 7 7 7 7 7 7 7 7 7 7 7 6 6 6
7 7 7 6 6 6 6 6 6 5 5 6 5 5 5 5 5 5 5 5 5 5 6 6 6 6 6 6 6 6 6 6 6 6 6 6 6 6 6 6 6 6 6
6 6 6 6 6 5 5 5 5 5 5 5 5 5 5 5 5 5 5 5 5 5 5 5 5 5 5 5 5 5 5 6 6 6 6 6 6 6 6 6 6 6 6
6 5 5 5 5 5 5 5 4 4 4 4 4 4 4 4 4 4 4 4 4 4 4 4 4 5 5 5 5 5 5 5 5 5 5 5 5 5 5 5 5 5 5
5 5 5 5 4 4 4 4 4 3 3 3 3 3 3 3 3 3 3 4 4 4 4 4 4 4 4 4 4 4 4 4 4 4 4 5 5 5 5 5 5 5 5
5 5 4 4 4 4 3 3 3 3 3 3 3 3 3 3 3 3 3 3 3 3 3 3 3 3 3 3 3 3 3 4 4 4 4 4 4 4 4 4 4 4 4
4 4 4 3 3 3 3 3 3 3 3 2 2 2 2 2 2 2 3 3 3 3 2 2 2 2 2 2 2 3 3 3 3 3 3 3 3 3 3 3 4 4 4
4 4 3 3 3 3 2 2 2 2 2 2 2 2 2 2 2 2 2 2 2 2 2 2 2 2 2 2 2 2 2 2 2 3 3 3 3 3 3 3 3 3 3
3 3 3 2 2 2 2 2 2 1 1 1 1 1 1 1 1 1 1 1 1 1 1 1 1 1 1 1 1 1 1 2 2 2 2 2 2 2 2 2 2 2 2
3 2 2 2 2 2 1 1 1 1 1 1 1 1 1 1 1 1 1 1 1 1 1 0 0 1 1 1 1 1 1 1 1 1 1 1 1 1 2 2 2 2 2
2 2 2 1 1 1 1 1 1 1 0 0 0 0 0 0 0 0 0 0 0 0 0 0 -0 0 0 0 0 0 0 1 1 1 1 1 1 1 1 1 1 1 1
2 1 1 1 1 1 0 0 0 0 -0 -0 -0 -0 -0 -0 -0 -1 -1 -1 -1 -0 -0 -0 -0 -0 -0 -0 -0 0 0 0 0 0 0 1 1 1 1 1 1 1 1
1 1 1 1 1 0 0 -0 -0 -0 -1 -1 -1 -1 -1 -1 -1 -1 -1 -1 -1 -1 -1 -1 -1 -1 -0 -0 -0 -0 -0 -0 0 0 0 0 0 0 0 1 1 1 0
1 1 0 0 0 -0 -0 -1 -1 -1 -1 -1 -1 -1 -1 -1 -1 -1 -1 -1 -1 -1 -1 -1 -1 -1 -1 -1 -1 -1 -1 -0 -0 -0 -0 -0 -0 -0 0 0 0 0 0
0 0 -0 -0 -0 -1 -1 -1 -1 -1 -1 -1 -2 -2 -2 -2 -2 -2 -2 -2 -2 -2 -2 -2 -1 -1 -1 -1 -1 -1 -1 -1 -1 -1 -1 -0 -0 -0 -0 -0 -0 -0 -0
Wind_Speed
1 1 0 0 0 1 1 0 0 0 1 1 1 1 1 1 1 1 1 1 1 1 0 1 1 0 1 0 1 1 1 2 2 2 1 2 2 2 3 3 2 2 2
1 1 1 0 1 1 0 0 0 1 0 1 1 1 1 1 1 1 1 1 1 1 0 1 1 1 1 1 1 1 1 2 2 1 1 1 1 1 2 2 2 2 1
1 1 1 1 1 1 0 0 1 1 1 1 2 1 1 1 1 1 1 1 1 1 1 1 1 1 1 1 1 1 1 1 1 1 1 1 1 2 2 2 2 2 1
1 1 1 0 0 0 0 1 1 1 1 1 1 1 1 1 1 1 1 1 1 0 1 1 1 2 2 2 2 2 2 1 1 1 0 1 1 1 1 1 2 2 2
1 1 1 1 0 1 1 1 1 2 2 1 1 1 1 0 0 1 1 1 0 0 1 1 1 2 2 2 2 2 2 2 1 1 0 0 0 0 1 0 1 2 2
1 1 0 1 1 1 1 2 2 2 2 2 2 1 1 1 1 1 1 1 0 0 1 2 2 1 1 1 2 2 3 3 3 2 1 1 2 1 0 1 0 1 2
1 1 1 1 1 1 2 2 2 2 2 2 1 1 1 2 2 1 1 1 0 1 1 1 1 2 2 1 2 2 2 3 4 4 3 3 3 3 2 1 1 1 2
1 1 1 2 2 2 2 2 1 1 1 1 1 1 1 2 3 2 1 1 0 1 1 1 2 2 1 1 1 0 1 1 2 2 4 4 3 3 3 3 3 1 1
1 1 1 2 2 2 1 1 1 1 1 0 0 1 1 3 4 2 2 0 0 1 1 1 1 2 2 1 1 1 1 2 1 1 1 1 1 2 3 2 2 1 1
1 1 1 1 2 2 1 0 1 1 1 1 0 1 1 3 4 3 2 0 0 1 2 2 2 2 3 0 1 2 2 2 1 1 1 2 1 1 3 3 4 3 1
1 1 1 1 1 1 1 1 1 1 1 1 0 1 2 2 3 3 2 1 0 0 1 2 3 4 3 2 1 2 3 2 2 2 1 1 0 0 1 2 3 3 3
1 2 1 1 1 1 2 1 1 1 1 1 1 2 2 2 2 3 3 2 2 0 1 2 2 4 4 3 1 2 2 0 1 1 0 1 1 2 2 2 3 3 4
2 2 1 2 1 2 2 2 2 1 1 0 0 1 2 2 3 4 3 3 3 1 1 2 3 4 5 4 3 3 2 1 1 1 1 2 2 2 1 1 1 1 1
2 1 1 2 2 2 1 1 1 1 0 0 0 1 2 2 2 2 1 1 2 2 2 3 5 5 4 4 4 3 2 1 0 1 2 1 1 1 1 1 2 1 1
2 1 1 1 1 1 1 1 1 0 0 0 1 0 0 2 3 3 2 1 1 0 1 2 3 3 3 3 2 2 2 1 1 1 1 1 1 1 2 1 1 1 1
2 1 1 1 1 1 1 2 4 3 3 3 3 2 1 2 4 4 3 3 2 2 2 2 2 2 3 3 2 2 2 2 2 1 1 1 1 2 2 2 1 1 2
2 1 1 1 1 1 1 1 1 3 5 5 5 4 4 4 4 4 4 3 3 3 2 1 2 2 2 3 3 3 2 2 2 1 1 2 2 2 2 2 2 2 2
1 2 2 1 1 1 1 1 1 1 2 3 4 5 5 5 5 4 4 3 3 3 1 1 2 2 2 3 3 3 3 2 2 2 2 2 2 2 2 2 2 2 2
2 1 1 1 1 1 1 1 1 1 1 2 2 3 5 5 5 5 5 2 1 2 2 2 2 3 3 3 3 3 3 2 2 2 2 2 2 2 3 3 2 3 2
1 2 3 2 1 1 1 1 1 1 1 2 2 3 3 3 3 4 3 2 2 2 2 2 3 3 3 3 3 3 3 3 3 2 2 2 2 2 3 3 2 2 3
2 2 3 2 1 1 1 1 1 1 1 1 2 3 4 2 2 2 2 2 2 3 3 3 3 3 3 3 3 3 3 3 3 3 3 3 2 2 2 2 3 3 2
2 1 1 1 1 1 1 1 1 1 1 1 2 3 5 3 2 2 2 3 3 3 3 3 3 3 3 3 3 3 3 3 3 3 3 3 3 3 2 2 2 3 2
2 2 1 1 1 2 2 1 1 1 1 1 2 2 2 2 2 2 3 3 3 3 4 3 3 3 4 4 4 3 4 4 4 4 4 3 3 3 3 3 3 3 3
2 2 1 1 1 1 1 0 1 1 1 1 1 2 2 2 3 3 3 3 3 4 4 4 4 5 6 5 5 5 5 6 6 5 5 4 4 3 3 3 4 4 4
2 1 1 1 1 0 0 0 1 1 1 1 2 2 2 3 3 3 3 3 4 4 5 5 5 5 7 7 7 7 8 8 8 6 4 3 3 4 4 4 4 4 4
1 1 1 1 0 0 1 1 1 1 1 2 2 2 2 3 3 3 3 4 4 5 5 5 7 8 8 8 8 9 9 9 8 8 5 3 3 3 3 3 4 4 4
Wind_Direction
147 159 127 317 39 79 103 196 346 31 54 82 84 89 87 80 79 109 101 120 128 100 151 166 206 174 142 156 145 134 141 148 191 273 296 327 346 350 351 352 356 12 21
175 135 99 18 46 90 86 312 83 111 104 96 94 98 93 78 89 119 123 103 137 140 192 184 225 184 165 181 158 177 185 173 171 236 301 332 316 330 347 355 7 18 25
123 115 94 55 18 337 337 16 76 95 84 78 85 86 82 72 75 89 117 106 119 168 198 200 233 191 207 199 187 197 206 164 133 170 278 315 328 348 2 3 2 2 10
112 118 133 208 223 223 80 93 101 97 96 85 75 64 63 69 62 70 89 86 77 7 257 219 225 212 218 209 201 201 179 137 115 128 247 331 331 337 19 8 352 352 340
138 147 246 273 28 85 82 70 69 69 68 65 67 43 24 49 77 83 105 103 118 329 306 279 243 231 227 206 201 191 170 158 148 144 132 356 323 1 296 280 292 330 327
156 195 194 108 75 74 85 80 70 62 55 55 52 49 11 335 11 40 103 138 157 236 288 297 284 267 278 271 259 201 173 166 174 169 192 225 259 245 229 197 175 1 310
120 91 119 128 112 97 93 87 84 77 68 55 35 25 336 320 355 0 22 70 154 251 281 304 310 314 327 296 292 273 219 202 187 182 190 217 218 215 191 202 216 226 242
106 87 95 106 107 98 94 96 86 76 84 64 21 347 330 333 353 360 17 47 23 292 277 263 268 286 298 324 286 271 252 260 233 206 202 215 211 198 190 200 209 221 281
107 125 131 126 121 116 112 110 89 96 76 17 312 342 330 320 335 343 18 215 320 311 304 316 284 280 308 11 107 178 288 306 299 246 251 257 230 194 155 120 125 138 261
222 200 150 132 133 138 137 68 63 108 163 186 308 306 297 305 330 352 27 109 327 330 332 321 317 315 314 290 177 185 219 258 249 281 326 322 316 207 183 179 183 189 218
214 125 113 117 132 120 84 51 79 86 105 107 38 318 307 310 326 346 16 26 250 306 327 317 316 334 330 314 276 215 234 232 206 193 223 274 309 258 238 227 207 199 211
97 104 92 81 95 88 86 55 57 84 94 90 47 345 325 317 338 335 356 11 34 68 294 293 310 341 345 339 320 290 277 228 142 149 206 269 259 255 260 260 239 234 238
89 94 83 72 72 84 96 81 57 62 80 53 65 333 327 334 330 342 353 2 27 36 330 335 346 351 357 358 354 342 352 64 157 203 248 263 259 254 274 297 296 286 303
87 75 89 92 73 70 78 90 83 71 61 55 23 340 332 340 340 339 347 3 23 27 6 2 11 12 15 9 4 357 4 344 246 243 275 286 314 320 289 281 270 262 283
85 72 82 103 115 91 63 62 75 75 115 118 210 215 306 321 328 354 19 4 11 30 34 29 22 13 13 3 354 353 345 335 309 300 292 289 295 302 306 310 271 248 256
91 73 88 100 103 100 77 28 22 22 17 17 26 27 347 352 351 359 1 359 15 35 63 37 11 357 347 336 331 327 325 315 293 278 274 269 278 280 290 301 286 265 263
104 89 89 97 105 103 91 76 21 13 18 19 16 12 10 4 357 354 358 9 19 47 55 15 344 334 330 328 327 321 310 299 293 283 283 283 287 289 285 284 283 287 282
103 103 100 111 117 107 94 72 44 37 14 354 352 2 7 5 359 2 7 29 21 26 15 334 323 320 317 317 318 319 319 324 321 304 296 292 286 288 292 283 275 280 285
110 107 109 100 82 85 78 63 36 22 7 348 354 358 4 5 8 12 20 40 25 354 342 332 324 319 317 313 314 319 318 314 313 310 308 301 290 285 285 282 272 281 289
101 94 91 91 80 79 81 68 43 28 15 8 359 348 356 18 18 6 10 12 5 341 330 324 321 320 319 316 318 322 322 319 314 309 308 307 303 294 286 286 277 268 268
103 102 86 86 85 84 89 76 47 30 3 352 341 350 18 26 358 345 349 351 340 326 319 315 317 322 318 319 321 317 315 314 309 303 300 299 296 291 286 282 277 270 271
117 109 113 108 84 68 66 61 48 31 5 354 347 352 5 14 354 344 341 337 333 326 322 315 314 308 303 305 309 311 308 309 307 303 296 290 288 285 281 279 279 275 270
121 118 103 89 83 63 53 40 27 4 353 351 352 357 357 355 349 340 331 329 327 326 330 328 320 318 324 317 310 297 293 293 288 284 288 290 287 284 280 273 268 270 269
126 124 115 96 80 78 69 31 355 347 340 338 346 347 342 336 333 330 327 324 322 321 324 324 320 317 319 323 318 312 305 301 299 290 280 278 285 286 278 273 269 266 262
126 128 127 127 120 113 37 328 308 315 322 326 328 331 330 329 327 326 327 322 319 316 317 319 320 317 316 315 314 313 312 313 314 311 299 282 275 279 280 276 273 274 269
131 136 142 146 170 231 245 260 276 292 300 311 316 316 318 321 320 323 325 322 321 318 316 316 316 314 314 314 313 313 314 314 314 315 313 296 282 279 279 276 275 272 268
Height
1521 1522 1522 1522 1522 1522 1521 1521 1521 1521 1520 1520 1519 1519 1519 1519 1520 1520 1520 1520 1520 1520 1521 1521 1521 1521 1521 1522 1522 1522 1521 1521 1520 1520 1520 1519 1519 1519 1518 1518 1518 1517 1516
1519 1520 1520 1520 1520 1519 1519 1519 1519 1518 1518 1518 1517 1517 1517 1517 1517 1518 1518 1518 1518 1518 1518 1519 1519 1519 1519 1519 1519 1519 1519 1519 1518 1517 1517 1517 1517 1516 1516 1516 1515 1515 1515
1517 1517 1517 1517 1517 1517 1517 1517 1517 1516 1516 1516 1515 1515 1515 1515 1515 1515 1515 1516 1516 1516 1516 1516 1516 1516 1516 1516 1516 1516 1516 1516 1515 1515 1514 1514 1514 1514 1513 1513 1513 1513 1512
1515 1515 1515 1515 1515 1515 1515 1515 1514 1514 1514 1513 1513 1513 1513 1512 1512 1513 1513 1513 1513 1513 1513 1513 1513 1513 1513 1513 1513 1513 1513 1513 1513 1512 1512 1511 1511 1511 1511 1511 1511 1511 1511
1513 1513 1513 1513 1513 1513 1513 1512 1512 1512 1512 1511 1511 1511 1511 1510 1510 1510 1511 1511 1511 1511 1511 1510 1511 1511 1510 1510 1510 1510 1510 1510 1510 1509 1509 1509 1509 1509 1509 1509 1508 1508 1508
1510 1510 1511 1510 1510 1510 1510 1510 1510 1510 1510 1509 1509 1509 1509 1508 1508 1508 1508 1508 1508 1508 1508 1508 1508 1508 1508 1508 1508 1508 1508 1507 1507 1506 1506 1506 1506 1506 1507 1507 1506 1505 1505
1508 1508 1508 1508 1508 1508 1508 1508 1508 1508 1508 1507 1507 1507 1507 1506 1506 1506 1505 1505 1505 1505 1505 1505 1504 1505 1505 1505 1505 1505 1505 1504 1505 1504 1504 1504 1504 1504 1504 1504 1504 1504 1503
1506 1506 1505 1505 1506 1506 1506 1506 1505 1505 1505 1505 1505 1505 1504 1504 1504 1503 1502 1502 1502 1502 1502 1502 1502 1502 1502 1502 1502 1501 1501 1501 1501 1502 1502 1502 1502 1502 1502 1502 1502 1502 1502
1503 1503 1503 1503 1503 1503 1503 1503 1503 1503 1502 1503 1503 1502 1502 1502 1501 1501 1500 1499 1499 1499 1499 1499 1499 1499 1499 1499 1499 1498 1498 1498 1498 1499 1499 1499 1499 1499 1499 1499 1499 1499 1498
1501 1501 1501 1501 1501 1501 1501 1500 1500 1500 1500 1500 1500 1500 1500 1499 1499 1498 1497 1497 1496 1496 1496 1496 1496 1496 1496 1495 1495 1495 1495 1495 1495 1495 1496 1496 1496 1496 1496 1496 1496 1496 1495
1499 1499 1499 1499 1499 1499 1498 1498 1498 1497 1497 1497 1497 1497 1497 1497 1497 1496 1495 1494 1493 1493 1493 1493 1493 1493 1492 1492 1492 1492 1492 1492 1492 1492 1492 1492 1493 1492 1493 1493 1493 1493 1493
1496 1496 1497 1497 1497 1497 1496 1496 1495 1495 1494 1494 1494 1494 1494 1494 1494 1493 1492 1492 1491 1490 1490 1490 1490 1490 1489 1489 1489 1489 1489 1489 1489 1489 1489 1489 1489 1489 1489 1490 1490 1490 1490
1495 1495 1495 1495 1495 1495 1494 1494 1493 1492 1492 1492 1491 1491 1491 1491 1491 1490 1489 1489 1488 1488 1488 1488 1487 1487 1486 1485 1485 1485 1485 1485 1485 1485 1485 1486 1486 1486 1486 1486 1486 1486 1486
1493 1493 1493 1493 1493 1493 1492 1492 1491 1491 1490 1490 1489 1489 1489 1489 1488 1488 1487 1486 1486 1485 1485 1485 1484 1484 1483 1482 1482 1482 1482 1482 1482 1482 1482 1482 1483 1482 1482 1482 1482 1482 1482
1492 1492 1491 1491 1491 1490 1490 1490 1490 1489 1489 1488 1488 1487 1487 1486 1486 1485 1484 1484 1483 1483 1482 1482 1481 1480 1480 1480 1479 1479 1479 1478 1478 1478 1478 1478 1479 1479 1478 1478 1478 1478 1477
1490 1490 1490 1489 1489 1488 1488 1488 1488 1488 1487 1487 1486 1486 1485 1485 1484 1483 1483 1482 1482 1481 1480 1479 1478 1478 1477 1477 1476 1475 1475 1475 1475 1475 1475 1475 1475 1474 1474 1474 1474 1474 1473
1489 1489 1488 1488 1487 1487 1487 1486 1486 1486 1485 1485 1484 1484 1484 1483 1482 1481 1481 1480 1480 1479 1478 1477 1476 1476 1475 1474 1474 1473 1472 1472 1472 1471 1471 1471 1471 1471 1471 1470 1470 1469 1469
1488 1488 1487 1487 1486 1485 1485 1485 1484 1483 1483 1482 1483 1482 1481 1481 1480 1479 1479 1478 1477 1476 1476 1475 1475 1474 1473 1472 1471 1471 1470 1469 1469 1468 1468 1468 1468 1467 1467 1466 1466 1466 1465
1487 1486 1486 1486 1485 1485 1485 1484 1484 1483 1482 1481 1481 1480 1480 1479 1478 1477 1476 1476 1475 1474 1474 1473 1473 1472 1471 1470 1469 1468 1467 1466 1466 1465 1465 1465 1464 1464 1463 1463 1462 1462 1462
1485 1485 1485 1485 1484 1484 1484 1483 1483 1482 1481 1480 1480 1479 1478 1477 1476 1475 1475 1474 1473 1473 1472 1471 1471 1470 1469 1468 1467 1466 1464 1464 1463 1462 1462 1461 1461 1461 1460 1459 1459 1459 1458
1485 1484 1484 1484 1483 1483 1482 1482 1481 1481 1480 1479 1479 1478 1477 1476 1475 1474 1474 1473 1472 1471 1470 1469 1468 1467 1466 1465 1464 1463 1462 1461 1460 1459 1459 1458 1457 1457 1456 1456 1456 1455 1455
1483 1483 1482 1482 1482 1481 1481 1481 1480 1479 1479 1478 1477 1477 1476 1475 1474 1473 1472 1471 1470 1469 1468 1466 1465 1464 1463 1462 1461 1460 1459 1458 1457 1456 1455 1454 1454 1453 1452 1452 1452 1452 1451
1482 1482 1481 1481 1481 1480 1480 1479 1479 1478 1478 1477 1476 1476 1475 1474 1473 1472 1470 1469 1468 1467 1465 1464 1463 1461 1460 1459 1458 1457 1456 1454 1454 1453 1452 1451 1450 1449 1448 1448 1448 1447 1447
1480 1480 1480 1479 1479 1479 1478 1478 1478 1477 1476 1476 1475 1474 1473 1472 1471 1470 1468 1467 1466 1464 1463 1461 1460 1459 1458 1456 1455 1454 1453 1452 1450 1449 1448 1447 1446 1445 1444 1444 1443 1443 1443
1479 1478 1478 1478 1477 1477 1476 1476 1476 1475 1475 1474 1473 1473 1471 1470 1469 1468 1466 1465 1463 1462 1460 1459 1457 1456 1455 1453 1452 1450 1449 1448 1447 1445 1444 1443 1442 1441 1440 1440 1439 1439 1439
1477 1477 1476 1476 1476 1475 1475 1474 1474 1474 1473 1472 1472 1471 1470 1468 1467 1466 1464 1463 1461 1459 1458 1456 1455 1453 1451 1450 1448 1447 1445 1444 1443 1442 1441 1439 1438 1437 1436 1435 1435 1434 1434